sat.trackr.live / text

‹ back to catalog

STARLINK-35367

NORAD 65883 · 2025-224B

PAYLOAD ACTIVE UNKNOWN

§ Identity

Operator
Country
US
Launch date
2025-10-07
Launch site
AFETR
Launch vehicle
Mass (kg)
RCS (m²)

Purposes: comms

External: N2YO · Heavens-Above · Gunter

§ Orbital elements

Epoch: 2026-09-20T22:46:12.990144Z

Period
93.85 min
Inclination
53.1580°
Eccentricity
0.0001341
Mean motion
15.34390231 rev/d
Perigee alt
461.8 km
Apogee alt
463.6 km
Semi-major
6,840.9 km
B*
5.7429e-4
RAAN
179.8359°
Arg perigee
84.1867°
Mean anomaly
275.9288°
Rev number
5,478

§ Raw data

STARLINK-353671 65883U 25224B   26263.94876146  .00019071  00000+0  57429-3 0  99962 65883  53.1580 179.8359 0001341  84.1867 275.9288 15.34390231 54785

JSON: /api/v1/satellites/65883 · /tle

For live sub-satellite position, see the globe view (requires WebGL).

§ Visibility from observer

Set your observer location to see the next 7 days of passes ≥ 10°. The values pass through the URL so the page stays shareable.

No JS? Fill the form by hand. The geolocation button needs JavaScript.